星链-2729 (STARLINK-2729 )

导读

STARLINK-2729是美国SpaceX公司星链(Starlink)星座的成员卫星,于2021年5月9日发射入轨,运行在近地轨道。它是星链全球卫星互联网计划的组成部分,旨在为地面网络难以覆盖的偏远地区、海洋及空域提供高速低延迟互联网接入服务。 星链星座计划部署数万颗低轨卫星,STARLINK-2729的入轨进一步拓展了星座的覆盖能力,推动全球互联网普惠化,但大规模低轨卫星部署也引发了天文观测与太空交通安全的争议。

基本信息
目录编号:
48430
目录名称:
STARLINK-2729
国际标识:
2021-040C
轨道中心:
EARTH
卫星名称:
星链-2729
卫星全名:
星链-2729 (STARLINK-2729 )
卫星状态:
已陨落 最后检测时间 2024-05-15
发射日期:
2021-05-09 UTC
国别 :
美国 (US)
星等 :
--
该卫星已列入 空间交会检测服务 Space Conjunction Data Service (SCDS) ,当前飞行风险评估等级: 无高风险
轨道信息
数据来源 国际轨道数据
星历时间: 2024-05-15T22:43:31+0800
轨道信息已过期850天
半长轴: 6538.565km
偏心率: 0.0026434
轨道倾角: 53.068°
近地点辐角 335.179°
升交点赤经 224.957°
平近点角 76.657°
近地点: 143.145km
远地点: 177.715km
周期: 87.697分钟
每日圈数: 16.420227
详细信息
固有亮度:
5
最大亮度:
2.5
卫星平台:
Starlink V1.0
覆盖范围:
全球
运营商:
太空探索技术公司
运营商所在国:
美国
制造商(研发单位):
太空探索技术公司
制造商所在国:
美国
使用方式:
暂无
卫星简介
星链(Starlink)计划是由太空探索技术公司(SpaceX)提出的一个巨型低轨卫星互联网星座项目,计划在2019年至2024年间在太空搭建由约1.2万颗卫星组成的“星链”网络,其中1584颗将部署在地球上空550千米处的近地轨道,并从2020年开始工作。该卫星已陨落。
与全量物体交会距离演化趋势
与全量物体交会风险概率演化趋势